MDT,Max TemperatureF,Mean TemperatureF,Min TemperatureF,Max Dew PointF,MeanDew PointF,Min DewpointF,Max Humidity, Mean Humidity, Min Humidity, Max Sea Level PressureIn, Mean Sea Level PressureIn, Min Sea Level PressureIn, Max VisibilityMiles, Mean VisibilityMiles, Min VisibilityMiles, Max Wind SpeedMPH, Mean Wind SpeedMPH, Max Gust SpeedMPH,PrecipitationIn, CloudCover, Events, WindDirDegrees
2012-9-1,81,66,50,50,40,33,66,40,18,30.46,30.40,30.34,10,10,7,28,6,39,0.00,1,,282
2012-9-2,83,69,55,53,44,31,70,47,16,30.45,30.41,30.35,10,10,10,24,6,31,0.00,3,,265
2012-9-3,83,70,56,49,39,26,71,40,13,30.46,30.41,30.34,10,10,10,21,5,32,0.00,1,,275
2012-9-4,84,66,48,37,30,23,61,30,11,30.47,30.39,30.30,10,10,10,22,7,31,0.00,1,,268
2012-9-5,83,67,51,27,19,8,38,19,6,30.44,30.37,30.28,10,10,10,22,8,30,0.00,0,,270
2012-9-6,85,64,44,28,21,16,43,22,8,30.43,30.35,30.27,10,10,10,18,6,28,0.00,0,,272
2012-9-7,72,65,56,43,37,28,52,36,25,30.56,30.42,30.30,10,10,10,24,12,32,0.00,3,,100
2012-9-8,79,62,44,41,36,25,78,43,14,30.61,30.52,30.40,10,10,7,18,3,24,0.00,1,,169
2012-9-9,82,63,44,38,26,3,66,32,5,30.57,30.46,30.34,10,10,10,15,6,25,0.00,0,,212
2012-9-10,82,67,52,36,27,17,34,24,12,30.41,30.32,30.22,10,10,10,14,7,17,0.00,1,,295
2012-9-11,76,65,54,53,41,31,92,44,24,30.32,30.27,30.20,10,10,5,22,6,38,0.00,3,,227
2012-9-12,56,52,48,52,48,43,95,87,73,30.54,30.40,30.29,10,8,2,12,6,17,0.00,8,,117
2012-9-13,68,56,43,45,42,35,96,66,31,30.68,30.60,30.55,10,10,10,14,3,18,0.00,3,,137
2012-9-14,71,55,39,41,34,26,91,54,20,30.70,30.62,30.51,10,10,10,12,5,21,0.00,0,,216
2012-9-15,80,60,39,34,28,14,75,39,8,30.57,30.47,30.34,10,10,10,12,5,18,0.00,0,,245
2012-9-16,80,62,44,30,22,12,55,27,9,30.45,30.36,30.25,10,10,10,18,6,26,0.00,0,,269
2012-9-17,63,52,41,45,33,21,89,51,27,30.42,30.34,30.27,10,10,2,21,3,38,0.00,2,,217
2012-9-18,78,58,39,38,30,21,86,40,13,30.46,30.38,30.30,10,10,10,14,3,23,0.00,0,,252
2012-9-19,79,60,41,32,24,15,63,32,9,30.46,30.40,30.32,10,10,10,9,3,,0.00,0,,201
2012-9-20,77,58,39,28,22,12,59,29,9,30.45,30.40,30.31,10,10,4,9,4,17,0.00,0,,252
2012-9-21,80,60,41,28,23,16,56,28,9,30.48,30.41,30.31,10,10,10,18,5,26,0.00,0,,204
2012-9-22,80,62,43,34,27,17,55,33,10,30.54,30.44,30.34,10,10,10,18,4,24,0.00,0,,159
2012-9-23,79,60,42,34,29,21,70,35,12,30.51,30.44,30.37,10,10,10,22,7,28,0.00,2,,258
2012-9-24,66,59,52,48,38,31,72,48,32,30.43,30.35,30.27,10,10,10,26,7,38,0.00,2,,294
2012-9-25,65,54,43,43,38,34,76,58,32,30.26,30.22,30.14,10,10,10,22,9,36,0.00,3,,256
2012-9-26,62,50,37,47,38,32,88,72,33,30.37,30.30,30.24,10,10,4,13,4,9,0.00,3,,249
2012-9-27,66,51,36,43,36,31,94,65,28,30.41,30.36,30.30,10,10,5,20,5,29,0.00,3,,261
2012-9-28,70,53,36,43,36,32,83,57,26,30.44,30.37,30.27,10,10,10,22,5,31,0.00,1,,131
2012-9-29,72,56,41,42,38,32,84,57,23,30.43,30.37,30.27,10,10,10,15,5,21,0.00,1,,217
2012-9-30,72,55,38,37,31,19,83,48,13,30.44,30.39,30.31,10,10,10,14,5,24,0.00,3,,298